Showing default

COSMOS 2569 (GLONASS), 57517

Orbit data source: Space-Track

COSMOS 2569 (GLONASS), 57517 is a Commonwealth of Independent States-origin payload satellite in MEO that was launched on Mon, 07 Aug 2023 UTC via a SOYUZ-2-1B launch vehicle from the Plesetsk Missile And Space Complex (PKMTR). Payload-class satellites include a variety of spacecraft equipped with specific instruments for various scientific and technological missions. These include communications satellites like Starlink; space stations such as the ISS; scientific satellites like the Hubble; Earth observation satellites from companies like Planet Labs, Umbra, and HawkEye 360; GPS; miniature CubeSats for education and research; and military/defense satellites.

Loading next visibility...
Identifier
57517, 2023-114A
Orbit
MEO
Country
Flag of CISCIS
Related business
Manufacturer
Resehetnev ISS
Mission
Awaiting activation Defense Navigation
Bus & Motor
KAUR-4N, AOCS
Mass
1,645 kg wet, ~1,200 kg dry
Launch date (UTC)
2023-08-07 (3 years ago)
Launch vehicle
SOYUZ-2-1B
Launch site
Plesetsk Missile And Space Complex (PKMTR)
Object type
Payload
Rocket body
Debris
Shape & HBR
Box + 2 Pan, 5.0 m
Radar Cross Section
8.935 m², Large (>1 m²)

Expand to show TLE details & history
Last TLE update: 1 day ago

TLE from 1 day ago
0 COSMOS 2569 (GLONASS)
1 57517U 23114A   26172.00750013 -.00000048  00000-0  00000+0 0  9992
2 57517  65.3042  72.4915 0010518 296.8945  63.0344  2.13103720 22343
Epoch: 2026-06-21T00:10Z
TLE epoch observation values (Epoch: 2026-06-21T00:10:48.011Z)
Latitude
-0.00008°
Longitude
160.58863°
Altitude
19,118.191 km
Speed
3.955 km/s
True Right ascension
04h 50m 00s
True Declination
0° 00' 00"
Sunlit
Object was in daylight at epoch
Visualization orbit readout
Latitude
Unknown
Longitude
Unknown
Altitude
Unknown
Speed
Unknown
Apparent Right ascension
Unknown
Apparent Declination
Unknown
Sunlit
N/A
Visualization observer readout
Local Sidereal Time
21:29:53
Azimuth
Unknown
Elevation
Unknown
Doppler factor
Unknown
Orbital elements
Apogee altitude
19,156.183 km
Perigee altitude
19,102.526 km
Semi-major axis
25,507.492 km
Eccentricity
0.00105
Inclination
65.3042°
RAAN
72.4915°
Arg. of periapsis
296.8945°
True anomaly
63.14189°
Mean anomaly
63.0344°
Eccentric anomaly
63.08814°
Mean motion
0.53277 °/min
Orbital period
675.71 mins
BSTAR
0
Loading maneuver chart data...
Computing Atmospheric mass density...
Loading historical data...
Loading historical data...
Loading historical data...
Loading historical data...
Loading historical data...
Loading historical data...
Loading historical data...
Other satellites on launch #114 in the year 2023 (2023-08-07 UTC)

Documentation

Showing up to 5 results
|